Location: Unspecified
(0.0000°N, 0.0000°E)
Time: 09:05:06
(UTC+00:00)

XW-2B - Pass Details

Date: 14 December 2017
Orbit: 511 x 530 km, 97.5° (Epoch: 15 January)

Event Time Altitude Azimuth Distance (km) Brightness Sun altitude
Rises 04:51:48 0° 45° (NE) 2,651 ? -14.4°
Reaches altitude 10° 04:54:57 10° 75° (ENE) 1,763 ? -13.7°
Maximum altitude 04:56:40 13° 101° (ESE) 1,597 ? -13.3°
Drops below altitude 10° 04:58:22 10° 128° (SE) 1,762 ? -12.9°
Sets 05:01:31 0° 157° (SSE) 2,649 ? -12.2°
